Weather History for Aurora, IL

Change the Weather History Date:

Saturday, December 28, 2013

  Actual Average Record
Temperature  
Mean Temperature 37 °F 22 °F  
Max Temperature 46 °F 30 °F 48 °F (1998)
Min Temperature 28 °F 15 °F -10 °F (2007)
Degree Days  
Heating Degree Days 28 43  
Month to date heating degree days 1218 1106  
Since 1 July heating degree days 2668 2520  
Cooling Degree Days 0 0  
Month to date cooling degree days 0 0  
Year to date cooling degree days 745 655  
Moisture  
Dew Point 31 °F    
Average Humidity 79    
Maximum Humidity 92    
Minimum Humidity 65    
Precipitation  
Precipitation 0.00 in 0.04 in 0.24 in (2003)
Month to date precipitation 0.65 1.84  
Year to date precipitation 33.48 36.74  
Sea Level Pressure  
Sea Level Pressure 30.01 in    
Wind  
Wind Speed 10 mph (SSW)    
Max Wind Speed 18 mph    
Max Gust Speed 23 mph    
Visibility 9 miles    
Events      
T = Trace of Precipitation, MM = Missing Value Source: NWS Daily Summary

Daily Weather History Graph

Daily Weather History Graph

Search for Another Location

Airport:

Trip Planner

Search our weather history database for the weather conditions in past years. The results will help you decide how hot, cold, wet, or windy it might be!

Date:

Astronomy

Dec. 28, 2013 Rise Set
Actual Time 7:20 AM CST 4:30 PM CST
Civil Twilight 6:49 AM CST 5:02 PM CST
Nautical Twilight 6:14 AM CST 5:37 PM CST
Astronomical Twilight 5:40 AM CST 6:11 PM CST
Moon 2:55 AM CST (12/28) 1:23 PM CST (12/28)
Length of Visible Light 10h 13m
Length of Day
9h 10m
Waning Crescent, 19% of the Moon is Illuminated
Dec 28
Waning Crescent
Jan 1
New
Jan 7
First Quarter
Jan 15
Full
Jan 23
Last Quarter

Hourly Weather History & Observations

Time (CST) Temp. Windchill Dew Point Humidity Pressure Visibility Wind Dir Wind Speed Gust Speed Precip Events Conditions
12:52 AM 35.1 °F 27.4 °F 28.9 °F 78% 30.10 in 10.0 mi SW 10.4 mph - N/A   Clear
1:52 AM 35.1 °F 27.9 °F 28.9 °F 78% 30.11 in 10.0 mi WSW 9.2 mph - N/A   Clear
2:52 AM 34.0 °F 28.8 °F 28.0 °F 79% 30.12 in 9.0 mi WSW 5.8 mph - N/A   Clear
3:52 AM 33.1 °F 26.1 °F 28.0 °F 82% 30.09 in 9.0 mi SW 8.1 mph - N/A   Clear
4:52 AM 33.1 °F 25.5 °F 28.0 °F 82% 30.11 in 8.0 mi SSW 9.2 mph - N/A   Clear
5:52 AM 32.0 °F 27.5 °F 28.9 °F 88% 30.10 in 8.0 mi SW 4.6 mph - N/A   Clear
6:52 AM 30.0 °F 25.2 °F 27.0 °F 88% 30.10 in 7.0 mi SSW 4.6 mph - N/A   Clear
7:52 AM 28.9 °F 25.2 °F 27.0 °F 92% 30.09 in 5.0 mi South 3.5 mph - N/A   Clear
8:52 AM 34.0 °F 28.0 °F 28.9 °F 82% 30.08 in 7.0 mi SSW 6.9 mph - N/A   Clear
9:52 AM 37.0 °F 29.8 °F 30.9 °F 79% 30.07 in 8.0 mi South 10.4 mph - N/A   Clear
10:52 AM 39.9 °F 33.4 °F 30.9 °F 70% 30.06 in 9.0 mi SSW 10.4 mph - N/A   Clear
11:52 AM 41.0 °F 33.1 °F 32.0 °F 70% 30.02 in 9.0 mi SSW 15.0 mph - N/A   Clear
12:52 PM 43.0 °F 36.4 °F 32.0 °F 65% 29.99 in 9.0 mi SSW 12.7 mph - N/A   Clear
1:52 PM 44.1 °F 39.0 °F 33.1 °F 65% 29.98 in 9.0 mi South 9.2 mph - N/A   Clear
2:52 PM 44.1 °F 39.0 °F 34.0 °F 68% 29.97 in 9.0 mi South 9.2 mph - N/A   Clear
3:52 PM 43.0 °F 38.2 °F 34.0 °F 71% 29.95 in 9.0 mi South 8.1 mph - N/A   Clear
4:52 PM 42.1 °F 37.1 °F 33.1 °F 70% 29.94 in 10.0 mi South 8.1 mph - N/A   Clear
5:52 PM 43.0 °F 36.8 °F 33.1 °F 68% 29.94 in 10.0 mi South 11.5 mph - N/A   Clear
6:52 PM 41.0 °F 34.7 °F 33.1 °F 73% 29.93 in 10.0 mi South 10.4 mph - N/A   Clear
7:52 PM 41.0 °F 33.5 °F 32.0 °F 70% 29.90 in 10.0 mi South 13.8 mph - N/A   Clear
8:52 PM 41.0 °F 32.5 °F 32.0 °F 70% 29.89 in 10.0 mi South 17.3 mph - N/A   Clear
9:52 PM 39.0 °F 31.8 °F 30.9 °F 73% 29.88 in 10.0 mi SSW 11.5 mph - N/A   Clear
10:52 PM 37.0 °F 29.8 °F 30.0 °F 76% 29.88 in 10.0 mi SSW 10.4 mph - N/A   Clear
11:52 PM 37.0 °F 28.5 °F 30.0 °F 76% 29.84 in 10.0 mi South 13.8 mph 20.7 mph N/A   Clear